Dewpoint
74 71 71 72 70 69 69 70 74 74 74 74 74 73 73 71 69 69 68 69 68 64
74 73 72 73 74 70 73 70 73 74 74 75 74 74 73 69 70 68 68 68 68 65
72 73 73 73 73 73 73 74 73 74 74 74 74 74 73 71 70 69 67 65 68 68
72 72 73 73 73 74 74 74 74 74 74 74 74 74 73 72 70 69 69 68 68 68
72 72 72 72 73 74 74 74 75 74 74 74 74 74 73 72 70 70 69 68 68 67
72 72 72 72 73 74 74 74 73 74 74 74 73 73 73 72 72 70 70 69 68 67
72 72 72 73 73 73 74 74 74 75 75 74 73 73 72 72 72 71 70 70 68 68
72 73 73 73 73 74 74 74 74 74 74 74 72 70 72 72 72 71 71 70 69 68
73 73 73 73 74 74 74 74 74 74 74 74 71 66 66 71 71 71 72 71 70 70
72 73 73 73 74 74 74 74 74 74 74 74 74 64 64 66 71 71 72 72 71 69
71 72 73 73 73 74 74 74 74 74 74 74 73 63 62 65 72 72 72 72 71 71
71 72 73 73 73 73 73 74 74 74 74 74 74 61 61 64 70 71 72 72 72 71
72 72 72 73 74 74 73 73 72 73 74 71 74 61 59 63 69 71 70 72 72 63
73 74 73 73 74 74 74 73 74 73 74 74 73 72 58 58 71 69 69 70 68 69
Lifted_Index
-4 -4 -4 -4 -4 -4 -4 -4 -5 -6 -6 -6 -6 -5 -5 -4 -4 -3 -2 -2 -2 -1
-4 -4 -4 -4 -4 -4 -4 -4 -5 -6 -6 -6 -6 -5 -5 -5 -4 -3 -3 -2 -2 -1
-5 -5 -5 -5 -5 -5 -5 -5 -5 -6 -7 -7 -6 -6 -5 -5 -4 -4 -3 -2 -2 -2
-5 -5 -5 -5 -5 -5 -5 -5 -6 -6 -7 -7 -7 -6 -6 -6 -5 -5 -4 -3 -2 -2
-5 -5 -5 -5 -5 -5 -5 -6 -6 -7 -7 -7 -7 -6 -6 -6 -6 -5 -4 -3 -3 -2
-6 -6 -6 -6 -6 -5 -6 -6 -6 -7 -7 -7 -7 -7 -6 -6 -6 -6 -5 -4 -3 -3
-6 -6 -6 -6 -6 -6 -6 -6 -6 -7 -7 -7 -7 -7 -6 -6 -6 -6 -5 -5 -4 -4
-6 -6 -6 -6 -6 -6 -6 -6 -6 -6 -7 -7 -7 -6 -6 -6 -6 -6 -5 -5 -5 -5
-6 -7 -7 -7 -7 -7 -7 -7 -6 -6 -7 -7 -6 -6 -6 -6 -6 -6 -6 -6 -6 -5
-6 -6 -7 -7 -7 -7 -7 -7 -7 -7 -7 -7 -7 -6 -5 -6 -6 -6 -6 -6 -6 -6
-6 -6 -7 -7 -7 -7 -7 -7 -7 -7 -7 -7 -7 -6 -5 -5 -6 -6 -6 -6 -6 -6
-6 -6 -7 -7 -7 -7 -7 -8 -8 -8 -8 -7 -7 -6 -6 -6 -6 -6 -6 -6 -6 -6
-6 -7 -7 -7 -7 -7 -7 -8 -8 -8 -8 -8 -7 -7 -6 -6 -6 -6 -6 -6 -6 -6
-6 -7 -7 -7 -8 -8 -8 -8 -8 -8 -8 -8 -7 -7 -6 -6 -6 -6 -6 -6 -6 -6